Weather History for KIDA - December, 2012

Change the Weather History Date:

Wednesday, December 19, 2012

  Actual Average Record
Temperature  
Mean Temperature 16 °F 20 °F  
Max Temperature 24 °F 28 °F 46 °F (1979)
Min Temperature 8 °F 11 °F -10 °F (1984)
Degree Days  
Heating Degree Days 49 45  
Month to date heating degree days 617 823  
Since 1 July heating degree days 2191 2726  
Cooling Degree Days 0 0  
Month to date cooling degree days 0 0  
Year to date cooling degree days 444 264  
Moisture  
Dew Point 9 °F    
Average Humidity 75    
Maximum Humidity 88    
Minimum Humidity 62    
Precipitation  
Precipitation 0.00 in 0.03 in 0.40 in (2010)
Month to date precipitation 0.48 0.56  
Year to date precipitation 6.85 10.08  
Sea Level Pressure  
Sea Level Pressure 30.25 in    
Wind  
Wind Speed 8 mph (SSW)    
Max Wind Speed 20 mph    
Max Gust Speed 22 mph    
Visibility 10 miles    
Events      
T = Trace of Precipitation, MM = Missing Value Source: NWS Daily Summary

Daily Weather History Graph

Daily Weather History Graph

Search for Another Location

Airport or City:

Trip Planner

Search our weather history database for the weather conditions in past years. The results will help you decide how hot, cold, wet, or windy it might be!

Date:

Astronomy

Dec. 19, 2012 Rise Set
Actual Time 7:57 AM MST 4:54 PM MST
Civil Twilight 7:24 AM MST 5:26 PM MST
Nautical Twilight 6:48 AM MST 6:03 PM MST
Astronomical Twilight 6:13 AM MST 6:38 PM MST
Moon 11:56 AM MST (12/19) No Moon Set
Length of Visible Light 10h 02m
Length of Day
8h 56m
Waxing Crescent, 45% of the Moon is Illuminated
Dec 19
Waxing Crescent
Dec 19
First Quarter
Dec 28
Full
Jan 4
Last Quarter
Jan 11
New

Hourly Weather History & Observations

Time (MST) Temp. Windchill Dew Point Humidity Pressure Visibility Wind Dir Wind Speed Gust Speed Precip Events Conditions
12:53 AM 10.9 °F - 5.0 °F 77% 30.03 in 10.0 mi Calm Calm - N/A   Clear
1:53 AM 10.0 °F - 3.9 °F 76% 30.05 in 10.0 mi Calm Calm - N/A   Clear
2:53 AM 9.0 °F 2.4 °F 3.9 °F 80% 30.08 in 10.0 mi East 3.5 mph - N/A   Clear
3:34 AM 8.6 °F - 3.2 °F 79% 29.93 in 10.0 mi Calm Calm - N/A   Mostly Cloudy
3:53 AM 9.0 °F - 3.9 °F 80% 30.09 in 10.0 mi Calm Calm - N/A   Overcast
4:53 AM 10.0 °F 1.8 °F 3.9 °F 76% 30.13 in 10.0 mi North 4.6 mph - N/A   Overcast
5:25 AM 10.4 °F - 5.0 °F 79% 29.97 in 10.0 mi Calm Calm - N/A   Overcast
5:53 AM 10.9 °F 4.7 °F 6.1 °F 81% 30.16 in 10.0 mi North 3.5 mph - N/A   Overcast
6:53 AM 14.0 °F - 9.0 °F 80% 30.19 in 10.0 mi Calm Calm - N/A   Overcast
7:53 AM 16.0 °F 3.6 °F 12.0 °F 84% 30.22 in 10.0 mi SW 10.4 mph - N/A   Overcast
8:53 AM 15.1 °F 1.1 °F 10.0 °F 80% 30.25 in 10.0 mi SSW 12.7 mph - N/A   Mostly Cloudy
9:16 AM 15.8 °F 2.1 °F 8.6 °F 73% 30.09 in 10.0 mi SSW 12.7 mph - N/A   Partly Cloudy
9:53 AM 15.1 °F 1.8 °F 8.1 °F 74% 30.30 in 10.0 mi SW 11.5 mph - N/A   Mostly Cloudy
10:53 AM 18.0 °F 4.2 °F 10.9 °F 74% 30.32 in 10.0 mi SW 13.8 mph - N/A   Mostly Cloudy
11:36 AM 17.6 °F 1.7 °F 10.4 °F 73% 30.15 in - SW 18.4 mph - N/A   Unknown
11:53 AM 19.9 °F 6.7 °F 12.0 °F 71% 30.33 in 10.0 mi SSW 13.8 mph - N/A   Mostly Cloudy
12:00 PM 19.4 °F 4.5 °F 10.4 °F 68% 30.15 in - SSW 17.3 mph - N/A   Unknown
12:08 PM 19.4 °F 5.0 °F 10.4 °F 68% 30.16 in - SSW 16.1 mph - N/A   Mostly Cloudy
12:26 PM 19.4 °F 5.0 °F 10.4 °F 68% 30.15 in 10.0 mi South 16.1 mph 21.9 mph N/A   Mostly Cloudy
12:53 PM 19.9 °F 6.2 °F 10.9 °F 68% 30.33 in 10.0 mi SSW 15.0 mph - N/A   Mostly Cloudy
1:53 PM 21.9 °F 9.2 °F 10.9 °F 63% 30.34 in 10.0 mi SSW 13.8 mph - N/A   Mostly Cloudy
2:53 PM 21.9 °F 8.7 °F 10.9 °F 63% 30.35 in 10.0 mi SSW 15.0 mph - N/A   Mostly Cloudy
3:53 PM 21.9 °F 9.8 °F 10.0 °F 60% 30.38 in 10.0 mi SSW 12.7 mph - N/A   Mostly Cloudy
4:32 PM 21.2 °F 6.4 °F 8.6 °F 58% 30.21 in 10.0 mi SSW 18.4 mph - N/A   Scattered Clouds
4:53 PM 21.0 °F 9.3 °F 10.9 °F 65% 30.41 in 10.0 mi SSW 11.5 mph - N/A   Scattered Clouds
5:53 PM 19.9 °F 8.6 °F 12.9 °F 74% 30.43 in 10.0 mi SSW 10.4 mph - N/A   Clear
6:53 PM 19.9 °F 9.3 °F 12.9 °F 74% 30.43 in 10.0 mi South 9.2 mph - N/A   Partly Cloudy
7:53 PM 19.0 °F 10.0 °F 10.9 °F 71% 30.45 in 10.0 mi South 6.9 mph - N/A   Scattered Clouds
8:29 PM 19.4 °F - 12.2 °F 74% 30.29 in 10.0 mi Calm Calm - N/A   Overcast
8:53 PM 19.9 °F 13.4 °F 12.0 °F 71% 30.46 in 10.0 mi South 4.6 mph - N/A   Overcast
9:05 PM 21.2 °F 12.6 °F 10.4 °F 63% 30.29 in 10.0 mi South 6.9 mph - N/A   Overcast
9:53 PM 21.0 °F 16.2 °F 10.9 °F 65% 30.47 in 10.0 mi WSW 3.5 mph - N/A   Overcast
10:53 PM 19.0 °F 13.9 °F 8.1 °F 62% 30.48 in 10.0 mi SSW 3.5 mph - N/A   Scattered Clouds
11:53 PM 15.1 °F - 8.1 °F 74% 30.50 in 10.0 mi Calm Calm - N/A   Clear